St. George, UT

8:41 PM MDT on May 26, 2017 (GMT -0600)
Saint George Municipal

Weather History for KSGU - May, 2013

Change the Weather History Date:

Wednesday, May 15, 2013

  Actual Average Record
Temperature  
Mean Temperature 76 °F -  
Max Temperature 89 °F 87 °F 98 °F (1948)
Min Temperature 64 °F 53 °F 40 °F (1933)
Cooling Degree Days 12    
Growing Degree Days 26 (Base 50)    
Moisture  
Dew Point 25 °F    
Average Humidity 14    
Maximum Humidity 19    
Minimum Humidity 10    
Precipitation  
Precipitation 0.00 in - - ()
Sea Level Pressure  
Sea Level Pressure 29.90 in    
Wind  
Wind Speed 10 mph (SW)    
Max Wind Speed 21 mph    
Max Gust Speed 28 mph    
Visibility 10 miles    
Events      
Averages and records for this station are not official NWS values.
T = Trace of Precipitation, MM = Missing Value Source: NWS Daily Summary

Daily Weather History Graph

Daily Weather History Graph

Search for Another Location

Airport or City:

Trip Planner

Search our weather history database for the weather conditions in past years. The results will help you decide how hot, cold, wet, or windy it might be!

Date:

Astronomy

May. 15, 2013 Rise Set
Actual Time 6:25 AM MDT 8:35 PM MDT
Civil Twilight 5:56 AM MDT 9:04 PM MDT
Nautical Twilight 5:21 AM MDT 9:40 PM MDT
Astronomical Twilight 4:42 AM MDT 10:19 PM MDT
Moon 11:03 AM MDT (5/15) 12:25 AM MDT (5/15)
Length of Visible Light 15h 08m
Length of Day
14h 09m
Waxing Crescent, 27% of the Moon is Illuminated
May 15
Waxing Crescent
May 17
First Quarter
May 24
Full
May 31
Last Quarter
Jun 8
New

Hourly Weather History & Observations

Time (MDT) Temp. Dew Point Humidity Pressure Visibility Wind Dir Wind Speed Gust Speed Precip Events Conditions
12:15 AM 84.2 °F 26.6 °F 12% 29.87 in 10.0 mi South 13.8 mph - N/A   Clear
12:35 AM 82.4 °F 26.6 °F 13% 29.88 in 10.0 mi SW 15.0 mph - N/A   Clear
12:55 AM 82.4 °F 26.6 °F 13% 29.89 in 10.0 mi West 8.1 mph - N/A   Clear
1:15 AM 82.4 °F 26.6 °F 13% 29.90 in 10.0 mi SW 6.9 mph - N/A   Clear
1:35 AM 80.6 °F 24.8 °F 13% 29.90 in 10.0 mi Calm Calm - N/A   Clear
1:55 AM 80.6 °F 24.8 °F 13% 29.90 in 10.0 mi SSW 5.8 mph - N/A   Clear
2:15 AM 82.4 °F 21.2 °F 10% 29.90 in 10.0 mi South 6.9 mph - N/A   Clear
2:35 AM 78.8 °F 19.4 °F 11% 29.90 in 10.0 mi South 9.2 mph 19.6 mph N/A   Clear
2:55 AM 77.0 °F 19.4 °F 12% 29.90 in 10.0 mi SSE 8.1 mph - N/A   Clear
3:15 AM 75.2 °F 19.4 °F 12% 29.90 in 10.0 mi SE 11.5 mph - N/A   Clear
3:35 AM 73.4 °F 19.4 °F 13% 29.90 in 10.0 mi SE 13.8 mph - N/A   Clear
3:55 AM 71.6 °F 21.2 °F 15% 29.90 in 10.0 mi ESE 15.0 mph - N/A   Clear
4:15 AM 71.6 °F 21.2 °F 15% 29.90 in 10.0 mi ESE 9.2 mph - N/A   Clear
4:35 AM 73.4 °F 21.2 °F 14% 29.90 in 10.0 mi SSE 6.9 mph - N/A   Clear
4:55 AM 69.8 °F 19.4 °F 15% 29.90 in 10.0 mi SE 8.1 mph - N/A   Clear
5:15 AM 66.2 °F 19.4 °F 17% 29.90 in 10.0 mi ESE 11.5 mph - N/A   Clear
5:35 AM 66.2 °F 21.2 °F 18% 29.91 in 10.0 mi SE 9.2 mph - N/A   Clear
5:55 AM 68.0 °F 19.4 °F 16% 29.91 in 10.0 mi East 5.8 mph - N/A   Clear
6:15 AM 64.4 °F 19.4 °F 18% 29.91 in 10.0 mi ESE 5.8 mph - N/A   Clear
6:35 AM 66.2 °F 19.4 °F 17% 29.92 in 10.0 mi SSE 5.8 mph - N/A   Clear
6:55 AM 64.4 °F 21.2 °F 19% 29.92 in 10.0 mi ESE 9.2 mph - N/A   Clear
7:15 AM 66.2 °F 23.0 °F 19% 29.93 in 10.0 mi SE 6.9 mph - N/A   Clear
7:35 AM 68.0 °F 23.0 °F 18% 29.94 in 10.0 mi West 11.5 mph - N/A   Clear
7:55 AM 71.6 °F 21.2 °F 15% 29.94 in 10.0 mi NE 5.8 mph - N/A   Clear
8:15 AM 71.6 °F 26.6 °F 19% 29.94 in 10.0 mi ESE 8.1 mph - N/A   Clear
8:35 AM 73.4 °F 23.0 °F 15% 29.95 in 10.0 mi SE 8.1 mph - N/A   Clear
8:55 AM 75.2 °F 21.2 °F 13% 29.95 in 10.0 mi SSE 5.8 mph - N/A   Clear
9:15 AM 75.2 °F 21.2 °F 13% 29.95 in 10.0 mi Calm Calm - N/A   Clear
9:35 AM 75.2 °F 23.0 °F 14% 29.96 in 10.0 mi West 3.5 mph - N/A   Clear
9:55 AM 77.0 °F 24.8 °F 14% 29.96 in 10.0 mi Calm Calm - N/A   Clear
10:15 AM 78.8 °F 24.8 °F 14% 29.96 in 10.0 mi Calm Calm - N/A   Clear
10:35 AM 78.8 °F 23.0 °F 13% 29.96 in 10.0 mi WNW 4.6 mph - N/A   Clear
10:55 AM 78.8 °F 24.8 °F 14% 29.96 in 10.0 mi NNW 9.2 mph - N/A   Clear
11:15 AM 80.6 °F 24.8 °F 13% 29.96 in 10.0 mi NW 5.8 mph - N/A   Clear
11:35 AM 82.4 °F 24.8 °F 12% 29.96 in 10.0 mi WSW 8.1 mph - N/A   Clear
12:15 PM 82.4 °F 26.6 °F 13% 29.95 in 10.0 mi West 16.1 mph 21.9 mph N/A   Clear
12:35 PM 82.4 °F 26.6 °F 13% 29.95 in 10.0 mi West 10.4 mph 23.0 mph N/A   Clear
12:55 PM 84.2 °F 26.6 °F 12% 29.94 in 10.0 mi WNW 9.2 mph 19.6 mph N/A   Clear
1:15 PM 84.2 °F 26.6 °F 12% 29.94 in 10.0 mi West 15.0 mph 18.4 mph N/A   Clear
1:35 PM 84.2 °F 26.6 °F 12% 29.93 in 10.0 mi West 19.6 mph 26.5 mph N/A   Clear
1:55 PM 86.0 °F 28.4 °F 12% 29.92 in 10.0 mi West 17.3 mph 26.5 mph N/A   Clear
2:15 PM 86.0 °F 28.4 °F 12% 29.91 in 10.0 mi West 18.4 mph 25.3 mph N/A   Clear
2:35 PM 86.0 °F 28.4 °F 12% 29.91 in 10.0 mi West 18.4 mph 24.2 mph N/A   Clear
2:55 PM 87.8 °F 28.4 °F 12% 29.90 in 10.0 mi West 19.6 mph 26.5 mph N/A   Clear
3:15 PM 87.8 °F 28.4 °F 12% 29.90 in 10.0 mi West 19.6 mph 24.2 mph N/A   Clear
3:35 PM 87.8 °F 28.4 °F 12% 29.89 in 10.0 mi WSW 18.4 mph 21.9 mph N/A   Clear
3:55 PM 87.8 °F 28.4 °F 12% 29.89 in 10.0 mi WSW 17.3 mph 25.3 mph N/A   Clear
4:15 PM 89.6 °F 28.4 °F 11% 29.88 in 10.0 mi West 20.7 mph 27.6 mph N/A   Clear
4:35 PM 89.6 °F 28.4 °F 11% 29.88 in 10.0 mi West 17.3 mph 26.5 mph N/A   Clear
4:55 PM 87.8 °F 28.4 °F 12% 29.87 in 10.0 mi West 12.7 mph 19.6 mph N/A   Clear
5:15 PM 87.8 °F 26.6 °F 11% 29.86 in 10.0 mi WSW 11.5 mph 24.2 mph N/A   Clear
5:35 PM 89.6 °F 28.4 °F 11% 29.86 in 10.0 mi West 17.3 mph 24.2 mph N/A   Clear
5:55 PM 89.6 °F 28.4 °F 11% 29.85 in 10.0 mi WSW 16.1 mph 24.2 mph N/A   Clear
6:15 PM 89.6 °F 28.4 °F 11% 29.85 in 10.0 mi WSW 12.7 mph 19.6 mph N/A   Clear
6:35 PM 89.6 °F 28.4 °F 11% 29.84 in 10.0 mi WSW 16.1 mph 21.9 mph N/A   Clear
6:55 PM 87.8 °F 28.4 °F 12% 29.84 in 10.0 mi SW 13.8 mph 19.6 mph N/A   Clear
7:15 PM 87.8 °F 28.4 °F 12% 29.83 in 10.0 mi SW 16.1 mph - N/A   Clear
7:35 PM 87.8 °F 28.4 °F 12% 29.83 in 10.0 mi WSW 15.0 mph 19.6 mph N/A   Clear
7:55 PM 87.8 °F 28.4 °F 12% 29.83 in 10.0 mi SW 13.8 mph - N/A   Clear
8:15 PM 87.8 °F 28.4 °F 12% 29.82 in 10.0 mi WSW 9.2 mph - N/A   Clear
8:35 PM 84.2 °F 28.4 °F 13% 29.83 in 10.0 mi West 4.6 mph - N/A   Clear
8:55 PM 82.4 °F 28.4 °F 14% 29.83 in 10.0 mi Calm Calm - N/A   Clear
9:15 PM 84.2 °F 28.4 °F 13% 29.83 in 10.0 mi Calm Calm - N/A   Clear
9:35 PM 78.8 °F 26.6 °F 15% 29.83 in 10.0 mi SSE 3.5 mph - N/A   Clear
9:55 PM 80.6 °F 26.6 °F 14% 29.84 in 10.0 mi Calm Calm - N/A   Clear
10:15 PM 78.8 °F 26.6 °F 15% 29.85 in 10.0 mi SE 6.9 mph - N/A   Clear
10:35 PM 77.0 °F 26.6 °F 16% 29.85 in 10.0 mi SSE 5.8 mph - N/A   Clear
10:55 PM 75.2 °F 26.6 °F 17% 29.85 in 10.0 mi SSE 4.6 mph - N/A   Clear
11:15 PM 80.6 °F 28.4 °F 15% 29.85 in 10.0 mi South 3.5 mph - N/A   Clear
11:35 PM 80.6 °F 28.4 °F 15% 29.85 in 10.0 mi South 9.2 mph - N/A   Clear
11:55 PM 80.6 °F 28.4 °F 15% 29.85 in 10.0 mi SSW 9.2 mph 16.1 mph N/A   Clear